Monticello, KY

1:58 AM EST on November 20, 2017 (GMT -0500)
Wayne County

Weather History for KEKQ - June, 2013

Change the Weather History Date:

Tuesday, June 18, 2013

  Actual Average Record
Temperature  
Mean Temperature 72 °F -  
Max Temperature 79 °F 84 °F 91 °F (2014)
Min Temperature 64 °F 62 °F 46 °F (2008)
Cooling Degree Days 6    
Growing Degree Days 22 (Base 50)    
Moisture  
Dew Point 66 °F    
Average Humidity 95    
Maximum Humidity 100    
Minimum Humidity 64    
Precipitation  
Precipitation 0.48 in - - ()
Sea Level Pressure  
Sea Level Pressure 29.94 in    
Wind  
Wind Speed 6 mph (NE)    
Max Wind Speed 15 mph    
Max Gust Speed -    
Visibility 6 miles    
Events Fog , Rain    
Averages and records for this station are not official NWS values.
T = Trace of Precipitation, MM = Missing Value Source: NWS Daily Summary

Daily Weather History Graph

Daily Weather History Graph

Search for Another Location

Airport or City:

Trip Planner

Search our weather history database for the weather conditions in past years. The results will help you decide how hot, cold, wet, or windy it might be!

Date:

Astronomy

Jun. 18, 2013 Rise Set
Actual Time 5:20 AM CDT 8:01 PM CDT
Civil Twilight 4:49 AM CDT 8:32 PM CDT
Nautical Twilight 4:10 AM CDT 9:10 PM CDT
Astronomical Twilight 3:27 AM CDT 9:53 PM CDT
Moon 2:50 PM CDT (6/18) 1:21 AM CDT (6/18)
Length of Visible Light 15h 42m
Length of Day
14h 41m
Waxing Gibbous, 71% of the Moon is Illuminated
Jun 18
Waxing Gibbous
Jun 23
Full
Jun 29
Last Quarter
Jul 8
New
Jul 15
First Quarter

Hourly Weather History & Observations

Time (CDT) Temp. Dew Point Humidity Pressure Visibility Wind Dir Wind Speed Gust Speed Precip Events Conditions
12:00 AM 66.2 °F 66.2 °F 100% 29.95 in 2.0 mi ESE 4.6 mph - 0.06 in Rain Light Rain
12:02 AM 66.2 °F 66.2 °F 100% 29.95 in 1.2 mi ESE 5.8 mph - 0.08 in Rain Heavy Rain
12:10 AM 66.2 °F 66.2 °F 100% 29.95 in 1.0 mi East 8.1 mph - 0.12 in Rain Heavy Rain
12:12 AM 66.2 °F 66.2 °F 100% 29.95 in 1.5 mi East 8.1 mph - 0.13 in Rain Rain
12:19 AM 66.2 °F 66.2 °F 100% 29.95 in 3.0 mi ENE 6.9 mph - 0.13 in Rain Light Rain
12:35 AM 66.2 °F 66.2 °F 100% 29.94 in 10.0 mi NE 3.5 mph - 0.13 in   Mostly Cloudy
12:56 AM 66.9 °F 66.9 °F 100% 29.93 in 10.0 mi ENE 3.5 mph - 0.13 in   Mostly Cloudy
1:56 AM 66.9 °F 66.9 °F 100% 29.91 in 10.0 mi Calm Calm - 0.00 in Rain Light Rain
2:56 AM 66.9 °F 66.9 °F 100% 29.90 in 6.0 mi Calm Calm - 0.01 in Rain Light Rain
3:13 AM 66.2 °F 66.2 °F 100% 29.92 in 5.0 mi Calm Calm - 0.01 in Rain Light Rain
3:20 AM 66.2 °F 66.2 °F 100% 29.92 in 4.0 mi North 3.5 mph - 0.01 in Rain Light Rain
3:56 AM 66.9 °F 66.9 °F 100% 29.91 in 4.0 mi Calm Calm - 0.03 in Rain Light Rain
4:04 AM 66.2 °F 66.2 °F 100% 29.92 in 2.5 mi NE 3.5 mph - 0.01 in Rain Rain
4:24 AM 66.2 °F 66.2 °F 100% 29.91 in 3.0 mi NE 4.6 mph - 0.04 in Rain Light Rain
4:36 AM 66.2 °F 66.2 °F 100% 29.91 in 4.0 mi NE 5.8 mph - 0.05 in Rain Light Rain
4:56 AM 65.8 °F 65.8 °F 100% 29.91 in 3.0 mi NE 4.6 mph - 0.08 in Rain Rain
5:04 AM 66.2 °F 66.2 °F 100% 29.91 in 2.5 mi NE 4.6 mph - 0.01 in Rain Rain
5:11 AM 66.2 °F 66.2 °F 100% 29.91 in 3.0 mi ENE 5.8 mph - 0.02 in Rain Light Rain
5:48 AM 66.2 °F 66.2 °F 100% 29.92 in 2.5 mi ENE 4.6 mph - 0.09 in Rain Rain
5:56 AM 65.8 °F 65.8 °F 100% 29.91 in 2.0 mi ENE 4.6 mph - 0.11 in Rain Rain
6:14 AM 66.2 °F 66.2 °F 100% 29.91 in 3.0 mi ENE 6.9 mph - 0.02 in Rain Light Rain
6:31 AM 66.2 °F 66.2 °F 100% 29.92 in 4.0 mi NE 5.8 mph - 0.03 in Rain Light Rain
6:56 AM 65.8 °F 65.8 °F 100% 29.91 in 4.0 mi NE 8.1 mph - 0.04 in Rain Light Rain
7:56 AM 64.9 °F 64.9 °F 100% 29.93 in 10.0 mi ENE 9.2 mph - 0.00 in   Overcast
8:34 AM 66.2 °F 66.2 °F 100% 29.93 in 10.0 mi NE 6.9 mph - 0.00 in   Overcast
8:47 AM 66.2 °F 66.2 °F 100% 29.93 in 10.0 mi NE 8.1 mph - 0.00 in Rain Light Rain
8:56 AM 65.8 °F 65.8 °F 100% 29.94 in 10.0 mi NE 6.9 mph - 0.00 in   Overcast
9:14 AM 66.2 °F 66.2 °F 100% 29.94 in 10.0 mi NNE 9.2 mph - N/A   Overcast
9:43 AM 66.2 °F 66.2 °F 100% 29.95 in 1.5 mi North 11.5 mph - 0.01 in Rain Heavy Rain
9:45 AM 66.2 °F 66.2 °F 100% 29.95 in 1.0 mi North 13.8 mph - 0.02 in Rain Heavy Rain
9:47 AM 66.2 °F 66.2 °F 100% 29.95 in 0.5 mi NNE 12.7 mph - 0.04 in Fog , Rain Heavy Rain
9:56 AM 64.9 °F 64.9 °F 100% 29.95 in 0.5 mi NNE 13.8 mph - 0.08 in Fog , Rain Heavy Rain
10:05 AM 64.4 °F 64.4 °F 100% 29.96 in 1.0 mi NNE 15.0 mph - 0.00 in Rain Rain
10:08 AM 64.4 °F 64.4 °F 100% 29.96 in 1.5 mi NNE 13.8 mph - 0.00 in Rain Rain
10:11 AM 64.4 °F 64.4 °F 100% 29.96 in 2.0 mi NNE 13.8 mph - 0.00 in Rain Rain
10:19 AM 64.4 °F 64.4 °F 100% 29.96 in 5.0 mi NNE 13.8 mph - 0.00 in Rain Light Rain
10:56 AM 66.9 °F 66.9 °F 100% 29.97 in 10.0 mi NNE 12.7 mph - 0.00 in   Overcast
11:04 AM 68.0 °F 66.2 °F 94% 29.97 in 10.0 mi NNE 8.1 mph - N/A   Mostly Cloudy
11:11 AM 68.0 °F 66.2 °F 94% 29.97 in 10.0 mi NNE 11.5 mph - 0.00 in Rain Light Rain
11:17 AM 68.0 °F 66.2 °F 94% 29.97 in 10.0 mi NE 12.7 mph - 0.00 in   Mostly Cloudy
11:56 AM 72.0 °F 68.0 °F 87% 29.97 in 10.0 mi NE 8.1 mph - 0.00 in   Scattered Clouds
12:56 PM 72.9 °F 65.8 °F 79% 29.96 in 10.0 mi East 9.2 mph - N/A   Partly Cloudy
1:56 PM 75.9 °F 65.8 °F 71% 29.95 in 10.0 mi NE 8.1 mph - N/A   Clear
2:56 PM 77.0 °F 68.0 °F 74% 29.96 in 10.0 mi North 6.9 mph - N/A   Partly Cloudy
3:56 PM 79.0 °F 66.9 °F 66% 29.94 in 10.0 mi NE 6.9 mph - N/A   Scattered Clouds
4:56 PM 79.0 °F 66.9 °F 66% 29.93 in 10.0 mi NE 6.9 mph - N/A   Partly Cloudy
5:56 PM 79.0 °F 65.8 °F 64% 29.91 in 10.0 mi NE 3.5 mph - N/A   Clear
6:56 PM 75.9 °F 70.9 °F 84% 29.94 in 10.0 mi Calm Calm - N/A   Clear
7:56 PM 70.9 °F 70.0 °F 97% 29.95 in 10.0 mi Calm Calm - N/A   Clear
8:56 PM 68.0 °F 68.0 °F 100% 29.99 in 8.0 mi Calm Calm - N/A   Clear
9:56 PM 65.8 °F 65.8 °F 100% 30.00 in 6.0 mi Calm Calm - N/A   Clear
10:56 PM 68.9 °F 63.0 °F 81% 30.01 in 10.0 mi NNE 9.2 mph - N/A   Mostly Cloudy
11:56 PM 66.9 °F 61.9 °F 84% 30.00 in 10.0 mi NE 3.5 mph - N/A   Partly Cloudy